Tracking 25370 objects as of 25-Jan-2022
HD Live streaming from Space Station
objects crossing your sky now

AYAME 2 DEB

Track AYAME 2 DEB now!


NORAD ID: 28999
Int'l Code: 1980-018D
Perigee: 9,974.0 km
Apogee: 35,272.6 km
Inclination: 6.6 °
Period: 818.9 minutes
Semi major axis: 28994 km
RCS: 0.631 m2 (medium)
Launch date: February 22, 1980
Source: Japan (JPN)
Launch site: TANEGASHIMA SPACE CENTER (TNSTA)

Note: This is SATELLITE DEBRIS
aabbcc
Your satellite tracking list
Your tracking list is empty




NASA's NSSDC Master Catalog

Two Line Element Set (TLE):
1 28999U 80018D   22023.78054762 -.00000034  00000-0  00000-0 0  9990
2 28999   6.6006 165.6504 4362690  51.9641 339.8636  1.75846835104426
Source of the keplerian elements: AFSPC